Location: Kershaw
(34.5481°N, 80.5823°W)
Time: 08:51:22
(UTC+00:00)

Tiros 1 despin weight - Pass Details

Date: 06 October 2022
Orbit: 590 x 637 km, 48.2° (Epoch: 28 November)

Event Time Altitude Azimuth Distance (km) Brightness Sun altitude
Rises 03:18:13 0° 299° (WNW) 2,903 - -50.7°
Reaches altitude 10° 03:20:41 10° 290° (WNW) 2,001 - -51.1°
Maximum altitude 03:24:50 34° 226° (SW) 1,047 - -51.7°
Drops below altitude 10° 03:29:00 10° 161° (SSE) 2,010 - -52.3°
Sets 03:31:29 0° 152° (SSE) 2,917 - -52.7°
